Hourly Data Report for September 26, 2021

WINNIPEG THE FORKS
MANITOBA
Current Station Operator: ECCC - MSC

49°53'18.008" N
97°07'46.007" W
230.00 m
5023262
71579
XWN

Download Data

Hourly Data (September 2021)
Hourly Data Report for September 26, 2021
TIME
LST
Temp Definition
°C
Dew Point Definition
°C
Rel Hum Definition
%
Precip. Amount Definition
mm

Wind Dir Definition
10's deg

Wind Spd Definition
km/h
Visibility Definition
km
Stn Press Definition
kPa
Hmdx Definition


Wind Chill Definition


Weather Definition


00:00 14.3 6.5 59 0.0   0   97.62     LegendNANA
01:00 13.5 7.3 66 0.0   0   97.63     LegendNANA
02:00 12.7 7.8 72 0.0 0 1   97.66     LegendNANA
03:00 13.3 7.2 66 0.0   0   97.62     LegendNANA
04:00 12.4 8.2 76 0.0 0 1   97.64     LegendNANA
05:00 13.1 6.2 63 0.0 35 5   97.68     LegendNANA
06:00 12.7 5.4 61 0.0 35 4   97.73     LegendNANA
07:00 12.4 5.6 64 0.0 34 2   97.77     LegendNANA
08:00 13.9 6.1 59 0.0 35 5   97.82     LegendNANA
09:00 16.1 6.5 53 0.0 35 6   97.85     LegendNANA
10:00 18.1 6.9 48 0.0 2 7   97.89     LegendNANA
11:00 19.5 6.7 43 0.0 1 5   97.92     LegendNANA
12:00 20.0 4.9 37 0.0 1 9   97.92     LegendNANA
13:00 20.7 4.9 35 0.0 32 8   97.95     LegendNANA
14:00 19.9 6.2 41 0.0 1 10   97.96     LegendNANA
15:00 19.3 5.1 39 0.0 3 11   98.01     LegendNANA
16:00 18.3 3.7 38 0.0 2 11   98.06     LegendNANA
17:00 17.3 5.6 46 0.0 1 8   98.10     LegendNANA
18:00 15.7 5.6 51 0.0 1 9   98.14     LegendNANA
19:00 14.7 5.5 54 0.0 3 8   98.19     LegendNANA
20:00 13.9 6.1 59 0.0 1 4   98.26     LegendNANA
21:00 12.7 6.7 67 0.0 36 3   98.28     LegendNANA
22:00 11.7 6.9 72 0.0 34 4   98.32     LegendNANA
23:00 10.9 6.9 76 0.0 1 3   98.33     LegendNANA

Notes on Data Quality.

Legend

  • E = Estimated
  • M = Missing
  • NA = Not Available*
  • [empty] = Indicates an unobserved value
Date modified: